Time,TemperatureF,DewpointF,PressureIn,WindDirection,WindDirectionDegrees,WindSpeedMPH,WindSpeedGustMPH,Humidity,HourlyPrecipIn,Conditions,Clouds,dailyrainin,SoftwareType,DateUTC
2013-05-28 00:01:00,54.7,46.9,29.47,SW,226,0.0,0.0,75,0.00,,,0.00,meteohub,2013-05-28 04:01:00,
2013-05-28 00:02:00,54.7,46.9,29.47,SW,226,0.0,0.0,75,0.00,,,0.00,meteohub,2013-05-28 04:02:00,
2013-05-28 00:07:00,54.7,46.9,29.47,SW,226,0.0,0.0,75,0.00,,,0.00,meteohub,2013-05-28 04:07:00,
2013-05-28 00:12:00,54.5,46.8,29.47,SW,226,0.0,0.0,75,0.00,,,0.00,meteohub,2013-05-28 04:12:00,
2013-05-28 00:17:00,54.5,46.8,29.47,SW,226,0.0,0.0,75,0.00,,,0.00,meteohub,2013-05-28 04:17:00,
2013-05-28 00:22:00,54.5,46.8,29.47,SW,226,0.0,0.0,75,0.00,,,0.00,meteohub,2013-05-28 04:22:00,
2013-05-28 00:27:00,54.5,46.8,29.47,SW,226,0.0,0.0,75,0.00,,,0.00,meteohub,2013-05-28 04:27:00,
2013-05-28 00:32:00,54.3,46.6,29.47,SW,226,0.0,0.0,75,0.00,,,0.00,meteohub,2013-05-28 04:32:00,
2013-05-28 00:37:00,54.5,47.1,29.47,SW,226,0.0,0.0,76,0.00,,,0.00,meteohub,2013-05-28 04:37:00,
2013-05-28 00:42:00,54.5,47.1,29.47,SW,226,0.0,0.0,76,0.00,,,0.00,meteohub,2013-05-28 04:42:00,
2013-05-28 00:47:00,54.5,47.1,29.47,SW,226,0.0,0.0,76,0.00,,,0.00,meteohub,2013-05-28 04:47:00,
2013-05-28 00:52:00,54.5,46.8,29.47,SW,226,0.0,0.0,75,0.00,,,0.00,meteohub,2013-05-28 04:52:00,
2013-05-28 00:57:00,54.5,46.8,29.47,SW,226,0.0,0.0,75,0.00,,,0.00,meteohub,2013-05-28 04:57:00,
2013-05-28 01:02:00,54.5,47.1,29.47,SW,226,0.0,0.0,76,0.00,,,0.00,meteohub,2013-05-28 05:02:00,
2013-05-28 01:07:00,54.7,48.4,29.48,SW,226,0.0,0.0,79,0.00,,,0.00,meteohub,2013-05-28 05:07:00,
2013-05-28 01:12:00,54.9,48.6,29.47,SW,226,0.0,0.0,79,0.00,,,0.00,meteohub,2013-05-28 05:12:00,
2013-05-28 01:17:00,54.7,48.0,29.47,SW,226,0.0,0.0,78,0.00,,,0.00,meteohub,2013-05-28 05:17:00,
2013-05-28 01:22:00,54.7,48.0,29.47,SW,226,0.0,0.0,78,0.00,,,0.00,meteohub,2013-05-28 05:22:00,
2013-05-28 01:27:00,54.7,48.0,29.47,SW,226,0.0,0.0,78,0.00,,,0.00,meteohub,2013-05-28 05:27:00,
2013-05-28 01:32:00,54.7,48.0,29.47,SW,226,0.0,0.0,78,0.00,,,0.00,meteohub,2013-05-28 05:32:00,
2013-05-28 01:37:00,54.7,48.0,29.47,SW,226,0.0,0.0,78,0.00,,,0.00,meteohub,2013-05-28 05:37:00,
2013-05-28 01:42:00,54.7,48.0,29.47,SW,226,0.0,0.0,78,0.00,,,0.00,meteohub,2013-05-28 05:42:00,
2013-05-28 01:47:00,54.7,47.7,29.47,SW,226,0.0,0.0,77,0.00,,,0.00,meteohub,2013-05-28 05:47:00,
2013-05-28 01:52:00,54.7,47.3,29.47,SW,226,0.0,0.0,76,0.00,,,0.00,meteohub,2013-05-28 05:52:00,
2013-05-28 01:57:00,54.7,47.7,29.47,SW,226,0.0,0.0,77,0.00,,,0.00,meteohub,2013-05-28 05:57:00,
2013-05-28 02:02:00,54.9,47.8,29.47,SW,226,0.0,0.0,77,0.00,,,0.00,meteohub,2013-05-28 06:02:00,
2013-05-28 02:07:00,54.9,48.2,29.47,SW,226,0.0,0.0,78,0.00,,,0.00,meteohub,2013-05-28 06:07:00,
2013-05-28 02:12:00,55.0,48.6,29.47,SW,226,0.0,0.0,79,0.00,,,0.00,meteohub,2013-05-28 06:12:00,
2013-05-28 02:17:00,55.0,48.6,29.47,SW,226,0.0,0.0,79,0.00,,,0.00,meteohub,2013-05-28 06:17:00,
2013-05-28 02:22:00,55.0,49.3,29.46,SW,226,0.0,0.0,81,0.00,,,0.00,meteohub,2013-05-28 06:22:00,
2013-05-28 02:27:00,55.2,49.5,29.46,SW,226,0.0,0.0,81,0.00,,,0.00,meteohub,2013-05-28 06:27:00,
2013-05-28 02:32:00,55.2,49.5,29.45,SW,226,0.0,0.0,81,0.00,,,0.00,meteohub,2013-05-28 06:32:00,
2013-05-28 02:37:00,55.2,49.5,29.45,SW,226,0.0,0.0,81,0.00,,,0.00,meteohub,2013-05-28 06:37:00,
2013-05-28 02:42:00,55.0,49.3,29.45,SW,226,0.0,0.0,81,0.00,,,0.00,meteohub,2013-05-28 06:42:00,
2013-05-28 02:47:00,55.0,48.6,29.45,SW,226,0.0,0.0,79,0.00,,,0.00,meteohub,2013-05-28 06:47:00,
2013-05-28 02:52:00,54.9,48.7,29.44,SW,226,0.0,0.0,80,0.00,,,0.00,meteohub,2013-05-28 06:52:00,
2013-05-28 02:57:00,54.9,48.7,29.45,SW,226,0.0,1.0,80,0.00,,,0.00,meteohub,2013-05-28 06:57:00,
2013-05-28 03:02:00,54.9,48.7,29.45,SW,226,0.0,1.0,80,0.00,,,0.00,meteohub,2013-05-28 07:02:00,
2013-05-28 03:07:00,54.9,48.6,29.45,SW,226,0.0,1.0,79,0.00,,,0.00,meteohub,2013-05-28 07:07:00,
2013-05-28 03:12:00,54.9,48.6,29.45,SW,226,0.0,0.0,79,0.00,,,0.00,meteohub,2013-05-28 07:12:00,
2013-05-28 03:17:00,54.9,48.6,29.45,SW,226,0.0,0.0,79,0.00,,,0.00,meteohub,2013-05-28 07:17:00,
2013-05-28 03:22:00,54.9,48.7,29.46,SW,226,0.0,0.0,80,0.00,,,0.00,meteohub,2013-05-28 07:22:00,
2013-05-28 03:27:00,54.9,48.7,29.45,SW,226,0.0,0.0,80,0.00,,,0.00,meteohub,2013-05-28 07:27:00,
2013-05-28 03:32:00,54.9,48.7,29.45,SW,226,0.0,0.0,80,0.00,,,0.00,meteohub,2013-05-28 07:32:00,
2013-05-28 03:37:00,54.9,48.7,29.45,SW,226,0.0,0.0,80,0.00,,,0.00,meteohub,2013-05-28 07:37:00,
2013-05-28 03:42:00,54.9,49.1,29.45,SW,226,0.0,0.0,81,0.00,,,0.00,meteohub,2013-05-28 07:42:00,
2013-05-28 03:46:00,55.0,49.3,29.45,SW,226,0.0,0.0,81,0.00,,,0.00,meteohub,2013-05-28 07:46:00,
2013-05-28 03:52:00,54.9,48.7,29.45,SW,226,0.0,0.0,80,0.00,,,0.00,meteohub,2013-05-28 07:52:00,
2013-05-28 03:57:00,55.0,49.3,29.45,SW,226,0.0,0.0,81,0.00,,,0.00,meteohub,2013-05-28 07:57:00,
2013-05-28 04:02:00,55.0,49.6,29.45,SW,226,0.0,0.0,82,0.00,,,0.00,meteohub,2013-05-28 08:02:00,
2013-05-28 04:07:00,55.0,49.6,29.45,SW,226,0.0,0.0,82,0.00,,,0.00,meteohub,2013-05-28 08:07:00,
2013-05-28 04:12:00,55.2,50.2,29.44,SW,226,0.0,0.0,83,0.00,,,0.00,meteohub,2013-05-28 08:12:00,
2013-05-28 04:17:00,55.2,50.2,29.44,SW,226,0.0,0.0,83,0.00,,,0.00,meteohub,2013-05-28 08:17:00,
2013-05-28 04:22:00,55.2,50.2,29.44,SW,226,0.0,0.0,83,0.00,,,0.00,meteohub,2013-05-28 08:22:00,
2013-05-28 04:26:00,55.0,50.0,29.44,SW,226,0.0,0.0,83,0.00,,,0.00,meteohub,2013-05-28 08:26:00,
2013-05-28 04:31:00,55.0,50.0,29.44,SW,226,0.0,0.0,83,0.00,,,0.00,meteohub,2013-05-28 08:31:00,
2013-05-28 04:36:00,55.0,49.6,29.44,SW,226,0.0,0.0,82,0.00,,,0.00,meteohub,2013-05-28 08:36:00,
2013-05-28 04:41:00,54.9,49.5,29.44,SW,226,0.0,1.0,82,0.00,,,0.00,meteohub,2013-05-28 08:41:00,
2013-05-28 04:46:00,54.9,49.5,29.44,SW,226,0.0,1.0,82,0.00,,,0.00,meteohub,2013-05-28 08:46:00,
2013-05-28 04:51:00,54.7,49.3,29.44,SW,226,0.0,1.0,82,0.00,,,0.00,meteohub,2013-05-28 08:51:00,
2013-05-28 04:56:00,54.7,49.3,29.44,SW,226,0.0,0.0,82,0.00,,,0.00,meteohub,2013-05-28 08:56:00,
2013-05-28 05:01:00,54.3,48.6,29.44,SW,226,0.0,0.0,81,0.00,,,0.00,meteohub,2013-05-28 09:01:00,
2013-05-28 05:07:00,54.3,48.6,29.44,SW,226,0.0,0.0,81,0.00,,,0.00,meteohub,2013-05-28 09:07:00,
2013-05-28 05:12:00,54.3,48.6,29.44,SW,226,0.0,0.0,81,0.00,,,0.00,meteohub,2013-05-28 09:12:00,
2013-05-28 05:17:00,54.1,48.4,29.45,SW,226,0.0,0.0,81,0.00,,,0.00,meteohub,2013-05-28 09:17:00,
2013-05-28 05:21:00,54.1,48.7,29.45,SW,226,0.0,0.0,82,0.00,,,0.00,meteohub,2013-05-28 09:21:00,
2013-05-28 05:27:00,54.1,48.7,29.45,South,186,0.0,0.0,82,0.00,,,0.00,meteohub,2013-05-28 09:27:00,
2013-05-28 05:32:00,54.1,48.7,29.45,ENE,62,0.0,0.0,82,0.00,,,0.00,meteohub,2013-05-28 09:32:00,
2013-05-28 05:37:00,54.1,48.7,29.45,ENE,62,0.0,1.0,82,0.00,,,0.00,meteohub,2013-05-28 09:37:00,
2013-05-28 05:42:00,54.3,49.3,29.45,ENE,62,0.0,1.0,83,0.00,,,0.00,meteohub,2013-05-28 09:42:00,
2013-05-28 05:47:00,54.3,49.3,29.45,ENE,62,0.0,1.0,83,0.00,,,0.00,meteohub,2013-05-28 09:47:00,
2013-05-28 05:52:00,54.5,49.8,29.45,ENE,62,0.0,0.0,84,0.00,,,0.00,meteohub,2013-05-28 09:52:00,
2013-05-28 05:57:00,54.5,49.8,29.45,ENE,62,0.0,0.0,84,0.00,,,0.00,meteohub,2013-05-28 09:57:00,
2013-05-28 06:02:00,54.7,50.0,29.45,ENE,62,0.0,0.0,84,0.00,,,0.00,meteohub,2013-05-28 10:02:00,
2013-05-28 06:07:00,54.7,50.0,29.46,ENE,62,0.0,0.0,84,0.00,,,0.00,meteohub,2013-05-28 10:07:00,
2013-05-28 06:12:00,54.7,50.2,29.46,ENE,62,0.0,0.0,85,0.00,,,0.00,meteohub,2013-05-28 10:12:00,
2013-05-28 06:17:00,54.7,50.2,29.46,ENE,62,0.0,0.0,85,0.00,,,0.00,meteohub,2013-05-28 10:17:00,
2013-05-28 06:22:00,54.7,50.2,29.46,ENE,62,0.0,0.0,85,0.00,,,0.00,meteohub,2013-05-28 10:22:00,
2013-05-28 06:27:00,54.7,50.2,29.46,SSE,167,0.0,0.0,85,0.00,,,0.00,meteohub,2013-05-28 10:27:00,
2013-05-28 06:32:00,54.7,50.5,29.46,SSE,167,0.0,0.0,86,0.00,,,0.00,meteohub,2013-05-28 10:32:00,
2013-05-28 06:37:00,54.7,50.5,29.46,SSE,167,0.0,0.0,86,0.00,,,0.00,meteohub,2013-05-28 10:37:00,
2013-05-28 06:42:00,54.7,50.5,29.46,SSE,167,0.0,0.0,86,0.00,,,0.00,meteohub,2013-05-28 10:42:00,
2013-05-28 06:47:00,54.7,50.5,29.46,SSE,167,0.0,0.0,86,0.00,,,0.00,meteohub,2013-05-28 10:47:00,
2013-05-28 06:52:00,54.7,50.5,29.47,SSE,167,0.0,0.0,86,0.00,,,0.00,meteohub,2013-05-28 10:52:00,
2013-05-28 06:57:00,54.7,50.5,29.47,SSE,167,0.0,0.0,86,0.00,,,0.00,meteohub,2013-05-28 10:57:00,
2013-05-28 07:02:00,54.7,50.9,29.46,SSE,167,0.0,0.0,87,0.00,,,0.00,meteohub,2013-05-28 11:02:00,
2013-05-28 07:07:00,54.7,50.9,29.46,SSE,167,0.0,0.0,87,0.00,,,0.00,meteohub,2013-05-28 11:07:00,
2013-05-28 07:12:00,54.7,50.9,29.46,SSE,167,0.0,0.0,87,0.00,,,0.00,meteohub,2013-05-28 11:12:00,
2013-05-28 07:17:00,54.9,51.1,29.46,SSE,167,0.0,0.0,87,0.00,,,0.00,meteohub,2013-05-28 11:17:00,
2013-05-28 07:22:00,54.9,51.1,29.46,SSE,167,0.0,0.0,87,0.00,,,0.00,meteohub,2013-05-28 11:22:00,
2013-05-28 07:27:00,54.9,51.1,29.46,SSE,167,0.0,0.0,87,0.00,,,0.00,meteohub,2013-05-28 11:27:00,
2013-05-28 07:32:00,55.0,51.6,29.46,SSE,167,0.0,1.0,88,0.00,,,0.00,meteohub,2013-05-28 11:32:00,
2013-05-28 07:37:00,55.0,51.6,29.46,SSE,167,0.0,1.0,88,0.00,,,0.00,meteohub,2013-05-28 11:37:00,
2013-05-28 07:41:00,55.0,51.6,29.46,SSE,167,0.0,1.0,88,0.00,,,0.00,meteohub,2013-05-28 11:41:00,
2013-05-28 07:46:00,55.2,52.0,29.46,SSE,167,0.0,0.0,89,0.00,,,0.00,meteohub,2013-05-28 11:46:00,
2013-05-28 07:52:00,55.4,53.1,29.46,SSE,167,0.0,0.0,92,0.00,,,0.00,meteohub,2013-05-28 11:52:00,
2013-05-28 07:57:00,55.6,52.3,29.46,South,176,0.0,2.0,89,0.01,,,0.01,meteohub,2013-05-28 11:57:00,
2013-05-28 08:02:00,55.6,52.3,29.46,South,176,0.0,2.0,89,0.01,,,0.01,meteohub,2013-05-28 12:02:00,
2013-05-28 08:07:00,55.6,52.3,29.46,South,174,0.0,2.0,89,0.01,,,0.01,meteohub,2013-05-28 12:07:00,
2013-05-28 08:12:00,55.8,52.5,29.46,South,174,0.0,2.0,89,0.01,,,0.01,meteohub,2013-05-28 12:12:00,
2013-05-28 08:17:00,55.8,52.5,29.46,South,177,0.0,5.0,89,0.01,,,0.01,meteohub,2013-05-28 12:17:00,
2013-05-28 08:22:00,55.9,52.7,29.46,South,177,0.0,5.0,89,0.01,,,0.01,meteohub,2013-05-28 12:22:00,
2013-05-28 08:27:00,55.9,52.7,29.46,South,177,0.0,5.0,89,0.02,,,0.02,meteohub,2013-05-28 12:27:00,
2013-05-28 08:32:00,56.1,53.8,29.47,South,177,0.0,3.0,92,0.02,,,0.02,meteohub,2013-05-28 12:32:00,
2013-05-28 08:37:00,56.1,53.2,29.47,South,177,0.0,2.0,90,0.02,,,0.02,meteohub,2013-05-28 12:37:00,
2013-05-28 08:42:00,56.3,53.4,29.47,South,177,0.0,2.0,90,0.02,,,0.02,meteohub,2013-05-28 12:42:00,
2013-05-28 08:47:00,56.3,53.4,29.47,South,177,0.0,1.0,90,0.03,,,0.03,meteohub,2013-05-28 12:47:00,
2013-05-28 08:52:00,56.5,53.6,29.47,South,177,0.0,1.0,90,0.04,,,0.05,meteohub,2013-05-28 12:52:00,
2013-05-28 08:57:00,56.5,53.6,29.47,South,177,0.0,0.0,90,0.06,,,0.07,meteohub,2013-05-28 12:57:00,
2013-05-28 09:02:00,56.5,54.0,29.47,South,177,0.0,0.0,91,0.06,,,0.07,meteohub,2013-05-28 13:02:00,
2013-05-28 09:07:00,56.5,54.0,29.46,South,177,0.0,0.0,91,0.07,,,0.08,meteohub,2013-05-28 13:07:00,
2013-05-28 09:12:00,56.5,54.0,29.46,South,177,0.0,0.0,91,0.07,,,0.08,meteohub,2013-05-28 13:12:00,
2013-05-28 09:17:00,56.5,54.0,29.45,South,177,0.0,0.0,91,0.07,,,0.08,meteohub,2013-05-28 13:17:00,
2013-05-28 09:22:00,56.5,54.0,29.45,South,177,0.0,2.0,91,0.07,,,0.08,meteohub,2013-05-28 13:22:00,
2013-05-28 09:27:00,56.7,54.3,29.45,South,177,1.0,2.0,92,0.06,,,0.08,meteohub,2013-05-28 13:27:00,
2013-05-28 09:32:00,56.7,54.3,29.45,South,177,0.0,2.0,92,0.06,,,0.08,meteohub,2013-05-28 13:32:00,
2013-05-28 09:37:00,56.8,54.5,29.45,South,177,0.0,2.0,92,0.07,,,0.09,meteohub,2013-05-28 13:37:00,
2013-05-28 09:42:00,56.8,54.5,29.45,South,177,0.0,2.0,92,0.07,,,0.09,meteohub,2013-05-28 13:42:00,
2013-05-28 09:47:00,56.8,54.9,29.45,South,177,0.0,1.0,93,0.06,,,0.09,meteohub,2013-05-28 13:47:00,
2013-05-28 09:52:00,57.0,55.0,29.46,South,177,0.0,1.0,93,0.04,,,0.09,meteohub,2013-05-28 13:52:00,
2013-05-28 09:57:00,57.0,55.0,29.46,South,177,0.0,0.0,93,0.02,,,0.09,meteohub,2013-05-28 13:57:00,
2013-05-28 10:02:00,57.0,55.0,29.46,South,177,1.0,0.0,93,0.02,,,0.10,meteohub,2013-05-28 14:02:00,
2013-05-28 10:07:00,57.4,55.4,29.45,South,177,0.0,1.0,93,0.02,,,0.10,meteohub,2013-05-28 14:07:00,
2013-05-28 10:12:00,57.4,55.4,29.45,South,177,0.0,1.0,93,0.03,,,0.11,meteohub,2013-05-28 14:12:00,
2013-05-28 10:17:00,57.6,55.6,29.45,East,95,0.0,1.0,93,0.03,,,0.11,meteohub,2013-05-28 14:17:00,
2013-05-28 10:22:00,57.7,55.8,29.46,SE,140,0.0,1.0,93,0.03,,,0.11,meteohub,2013-05-28 14:22:00,
2013-05-28 10:27:00,57.7,55.8,29.46,SE,140,0.0,1.0,93,0.04,,,0.12,meteohub,2013-05-28 14:27:00,
2013-05-28 10:32:00,58.1,56.3,29.45,SE,140,0.0,2.0,94,0.05,,,0.12,meteohub,2013-05-28 14:32:00,
2013-05-28 10:37:00,58.3,56.5,29.46,SE,140,0.0,2.0,94,0.04,,,0.13,meteohub,2013-05-28 14:37:00,
2013-05-28 10:42:00,58.3,56.3,29.46,SE,140,0.0,3.0,93,0.05,,,0.14,meteohub,2013-05-28 14:42:00,
2013-05-28 10:47:00,58.3,56.3,29.46,SE,140,0.0,3.0,93,0.05,,,0.14,meteohub,2013-05-28 14:47:00,
2013-05-28 10:52:00,58.5,56.5,29.46,SW,236,2.0,3.0,93,0.06,,,0.15,meteohub,2013-05-28 14:52:00,
2013-05-28 10:57:00,58.5,56.7,29.46,SW,236,2.0,3.0,94,0.07,,,0.16,meteohub,2013-05-28 14:57:00,
2013-05-28 11:02:00,58.6,56.8,29.46,SW,236,0.0,3.0,94,0.06,,,0.16,meteohub,2013-05-28 15:02:00,
2013-05-28 11:07:00,58.8,57.0,29.46,SSE,157,0.0,3.0,94,0.06,,,0.16,meteohub,2013-05-28 15:07:00,
2013-05-28 11:12:00,59.0,57.2,29.46,SSE,157,0.0,3.0,94,0.05,,,0.16,meteohub,2013-05-28 15:12:00,
2013-05-28 11:17:00,59.0,57.2,29.46,ESE,109,0.0,3.0,94,0.05,,,0.16,meteohub,2013-05-28 15:17:00,
2013-05-28 11:22:00,59.0,57.2,29.45,SSE,161,0.0,2.0,94,0.05,,,0.16,meteohub,2013-05-28 15:22:00,
2013-05-28 11:27:00,59.0,57.2,29.46,SSE,161,0.0,2.0,94,0.04,,,0.16,meteohub,2013-05-28 15:27:00,
2013-05-28 11:32:00,59.0,57.2,29.45,SW,233,1.0,2.0,94,0.04,,,0.16,meteohub,2013-05-28 15:32:00,
2013-05-28 11:37:00,59.0,57.2,29.45,West,270,0.0,4.0,94,0.04,,,0.17,meteohub,2013-05-28 15:37:00,
2013-05-28 11:42:00,59.0,57.2,29.45,SSE,150,1.0,4.0,94,0.03,,,0.17,meteohub,2013-05-28 15:42:00,
2013-05-28 11:47:00,59.4,57.6,29.44,SSE,150,0.0,4.0,94,0.03,,,0.17,meteohub,2013-05-28 15:47:00,
2013-05-28 11:52:00,59.7,58.3,29.44,SSE,150,0.0,3.0,95,0.03,,,0.18,meteohub,2013-05-28 15:52:00,
2013-05-28 11:57:00,59.7,57.9,29.44,South,173,0.0,6.0,94,0.02,,,0.18,meteohub,2013-05-28 15:57:00,
2013-05-28 12:02:00,59.7,57.9,29.44,SSW,200,2.0,6.0,94,0.02,,,0.18,meteohub,2013-05-28 16:02:00,
2013-05-28 12:07:00,59.7,57.9,29.44,SSW,200,0.0,6.0,94,0.02,,,0.18,meteohub,2013-05-28 16:07:00,
2013-05-28 12:12:00,59.7,57.9,29.44,SE,130,0.0,5.0,94,0.03,,,0.19,meteohub,2013-05-28 16:12:00,
2013-05-28 12:17:00,59.7,57.9,29.43,South,171,2.0,5.0,94,0.03,,,0.19,meteohub,2013-05-28 16:17:00,
2013-05-28 12:22:00,59.5,57.7,29.43,SSE,150,1.0,5.0,94,0.04,,,0.20,meteohub,2013-05-28 16:22:00,
2013-05-28 12:27:00,59.5,57.7,29.42,SSE,161,0.0,5.0,94,0.05,,,0.21,meteohub,2013-05-28 16:27:00,
2013-05-28 12:32:00,59.4,57.6,29.42,South,172,0.0,6.0,94,0.04,,,0.21,meteohub,2013-05-28 16:32:00,
2013-05-28 12:37:00,59.5,58.1,29.42,South,172,1.0,6.0,95,0.05,,,0.22,meteohub,2013-05-28 16:37:00,
2013-05-28 12:42:00,59.5,58.1,29.42,South,183,0.0,8.0,95,0.05,,,0.22,meteohub,2013-05-28 16:42:00,
2013-05-28 12:47:00,59.7,58.3,29.42,SSW,199,0.0,8.0,95,0.05,,,0.22,meteohub,2013-05-28 16:47:00,
2013-05-28 12:52:00,59.7,58.3,29.41,SSE,166,0.0,8.0,95,0.05,,,0.23,meteohub,2013-05-28 16:52:00,
2013-05-28 12:57:00,59.9,58.5,29.41,WSW,252,1.0,4.0,95,0.05,,,0.23,meteohub,2013-05-28 16:57:00,
2013-05-28 13:02:00,60.1,58.6,29.42,SSE,162,0.0,4.0,95,0.05,,,0.23,meteohub,2013-05-28 17:02:00,
2013-05-28 13:07:00,60.1,58.6,29.42,SW,234,0.0,7.0,95,0.05,,,0.23,meteohub,2013-05-28 17:07:00,
2013-05-28 13:12:00,60.3,58.8,29.42,SSW,205,1.0,7.0,95,0.04,,,0.23,meteohub,2013-05-28 17:12:00,
2013-05-28 13:17:00,60.3,58.8,29.42,SSE,161,0.0,7.0,95,0.04,,,0.23,meteohub,2013-05-28 17:17:00,
2013-05-28 13:22:00,60.4,59.0,29.42,SSW,207,2.0,7.0,95,0.03,,,0.23,meteohub,2013-05-28 17:22:00,
2013-05-28 13:27:00,60.6,59.2,29.42,SSW,209,2.0,7.0,95,0.02,,,0.23,meteohub,2013-05-28 17:27:00,
2013-05-28 13:32:00,60.8,59.4,29.42,WSW,250,0.0,6.0,95,0.02,,,0.23,meteohub,2013-05-28 17:32:00,
2013-05-28 13:37:00,61.0,59.5,29.42,South,174,0.0,6.0,95,0.01,,,0.23,meteohub,2013-05-28 17:37:00,
2013-05-28 13:42:00,61.0,59.5,29.41,WSW,245,0.0,6.0,95,0.01,,,0.23,meteohub,2013-05-28 17:42:00,
2013-05-28 13:47:00,61.0,59.5,29.42,SE,145,1.0,6.0,95,0.01,,,0.23,meteohub,2013-05-28 17:47:00,
2013-05-28 13:52:00,61.2,59.7,29.42,WSW,247,0.0,5.0,95,0.01,,,0.23,meteohub,2013-05-28 17:52:00,
2013-05-28 13:57:00,61.2,59.7,29.42,SSW,201,0.0,4.0,95,0.01,,,0.24,meteohub,2013-05-28 17:57:00,
2013-05-28 14:02:00,61.2,59.7,29.42,SW,229,0.0,6.0,95,0.01,,,0.24,meteohub,2013-05-28 18:02:00,
2013-05-28 14:07:00,61.0,59.5,29.42,SE,125,1.0,6.0,95,0.01,,,0.24,meteohub,2013-05-28 18:07:00,
2013-05-28 14:12:00,61.0,59.5,29.42,SE,125,0.0,6.0,95,0.01,,,0.24,meteohub,2013-05-28 18:12:00,
2013-05-28 14:17:00,61.2,59.7,29.42,SE,139,0.0,4.0,95,0.01,,,0.24,meteohub,2013-05-28 18:17:00,
2013-05-28 14:22:00,61.3,59.9,29.43,NW,321,1.0,5.0,95,0.01,,,0.24,meteohub,2013-05-28 18:22:00,
2013-05-28 14:27:00,61.5,60.1,29.42,NW,321,0.0,5.0,95,0.01,,,0.24,meteohub,2013-05-28 18:27:00,
2013-05-28 14:32:00,61.5,60.1,29.42,South,188,0.0,5.0,95,0.01,,,0.24,meteohub,2013-05-28 18:32:00,
2013-05-28 14:37:00,61.5,60.4,29.42,South,188,0.0,3.0,96,0.01,,,0.24,meteohub,2013-05-28 18:37:00,
2013-05-28 14:42:00,61.9,60.8,29.42,South,188,0.0,3.0,96,0.01,,,0.24,meteohub,2013-05-28 18:42:00,
2013-05-28 14:47:00,61.9,60.8,29.42,South,188,0.0,1.0,96,0.02,,,0.25,meteohub,2013-05-28 18:47:00,
2013-05-28 14:52:00,61.9,60.4,29.42,South,188,2.0,3.0,95,0.01,,,0.25,meteohub,2013-05-28 18:52:00,
2013-05-28 14:57:00,62.1,61.0,29.42,South,188,0.0,3.0,96,0.01,,,0.25,meteohub,2013-05-28 18:57:00,
2013-05-28 15:02:00,62.1,61.0,29.42,South,188,0.0,3.0,96,0.01,,,0.25,meteohub,2013-05-28 19:02:00,
2013-05-28 15:07:00,62.2,60.8,29.42,SW,217,0.0,2.0,95,0.02,,,0.26,meteohub,2013-05-28 19:07:00,
2013-05-28 15:12:00,62.2,61.2,29.42,SW,217,2.0,3.0,96,0.02,,,0.26,meteohub,2013-05-28 19:12:00,
2013-05-28 15:17:00,62.4,61.3,29.41,SW,217,1.0,5.0,96,0.02,,,0.26,meteohub,2013-05-28 19:17:00,
2013-05-28 15:22:00,62.6,61.5,29.41,SW,217,0.0,5.0,96,0.02,,,0.26,meteohub,2013-05-28 19:22:00,
2013-05-28 15:27:00,62.8,61.3,29.41,SW,217,0.0,5.0,95,0.02,,,0.26,meteohub,2013-05-28 19:27:00,
2013-05-28 15:32:00,62.4,61.0,29.41,SSW,199,0.0,3.0,95,0.02,,,0.26,meteohub,2013-05-28 19:32:00,
2013-05-28 15:37:00,62.4,61.0,29.41,SSW,200,0.0,3.0,95,0.02,,,0.26,meteohub,2013-05-28 19:37:00,
2013-05-28 15:42:00,62.4,61.0,29.41,SSW,199,0.0,3.0,95,0.02,,,0.26,meteohub,2013-05-28 19:42:00,
2013-05-28 15:47:00,62.4,61.0,29.41,SSW,200,0.0,3.0,95,0.01,,,0.26,meteohub,2013-05-28 19:47:00,
2013-05-28 15:52:00,62.6,61.5,29.40,SSW,200,0.0,3.0,96,0.01,,,0.26,meteohub,2013-05-28 19:52:00,
2013-05-28 15:57:00,62.8,61.3,29.40,SSW,199,0.0,5.0,95,0.02,,,0.26,meteohub,2013-05-28 19:57:00,
2013-05-28 16:02:00,62.8,61.7,29.40,SSW,199,0.0,5.0,96,0.02,,,0.27,meteohub,2013-05-28 20:02:00,
2013-05-28 16:07:00,62.8,61.3,29.40,South,182,0.0,5.0,95,0.01,,,0.27,meteohub,2013-05-28 20:07:00,
2013-05-28 16:12:00,63.0,61.9,29.40,South,182,0.0,4.0,96,0.01,,,0.27,meteohub,2013-05-28 20:12:00,
2013-05-28 16:17:00,63.1,62.1,29.40,WSW,258,0.0,4.0,96,0.01,,,0.27,meteohub,2013-05-28 20:17:00,
2013-05-28 16:22:00,63.3,62.2,29.40,WSW,258,0.0,3.0,96,0.01,,,0.27,meteohub,2013-05-28 20:22:00,
2013-05-28 16:27:00,63.5,62.4,29.40,WSW,258,0.0,3.0,96,0.01,,,0.27,meteohub,2013-05-28 20:27:00,
2013-05-28 16:32:00,63.5,62.1,29.40,SSW,195,0.0,3.0,95,0.01,,,0.27,meteohub,2013-05-28 20:32:00,
2013-05-28 16:37:00,63.7,62.6,29.40,SSW,195,0.0,2.0,96,0.01,,,0.27,meteohub,2013-05-28 20:37:00,
2013-05-28 16:42:00,63.7,62.6,29.40,SSW,195,0.0,2.0,96,0.01,,,0.27,meteohub,2013-05-28 20:42:00,
2013-05-28 16:47:00,63.9,62.8,29.40,SSW,195,0.0,2.0,96,0.01,,,0.27,meteohub,2013-05-28 20:47:00,
2013-05-28 16:52:00,64.0,63.0,29.40,SSW,195,0.0,2.0,96,0.01,,,0.27,meteohub,2013-05-28 20:52:00,
2013-05-28 16:57:00,64.2,63.1,29.40,SSW,195,0.0,2.0,96,0.00,,,0.27,meteohub,2013-05-28 20:57:00,
2013-05-28 17:02:00,64.0,62.6,29.40,SSW,195,0.0,2.0,95,0.00,,,0.27,meteohub,2013-05-28 21:02:00,
2013-05-28 17:07:00,64.0,62.6,29.40,SSW,195,0.0,2.0,95,0.00,,,0.27,meteohub,2013-05-28 21:07:00,
2013-05-28 17:12:00,64.2,62.8,29.40,SSW,195,0.0,2.0,95,0.00,,,0.27,meteohub,2013-05-28 21:12:00,
2013-05-28 17:17:00,64.2,62.8,29.40,SSW,195,0.0,1.0,95,0.00,,,0.27,meteohub,2013-05-28 21:17:00,
2013-05-28 17:22:00,64.2,62.8,29.39,SSW,195,0.0,1.0,95,0.00,,,0.27,meteohub,2013-05-28 21:22:00,
2013-05-28 17:27:00,64.2,62.8,29.40,SSW,195,0.0,1.0,95,0.00,,,0.27,meteohub,2013-05-28 21:27:00,
2013-05-28 17:32:00,64.4,63.0,29.39,SSW,195,0.0,0.0,95,0.00,,,0.27,meteohub,2013-05-28 21:32:00,
2013-05-28 17:37:00,64.4,63.0,29.39,SSW,198,1.0,0.0,95,0.00,,,0.27,meteohub,2013-05-28 21:37:00,
2013-05-28 17:42:00,64.6,63.1,29.39,SSW,198,0.0,1.0,95,0.00,,,0.27,meteohub,2013-05-28 21:42:00,
2013-05-28 17:47:00,64.8,63.3,29.39,SSW,198,0.0,1.0,95,0.00,,,0.27,meteohub,2013-05-28 21:47:00,
2013-05-28 17:52:00,64.6,63.1,29.39,SSW,198,0.0,1.0,95,0.00,,,0.27,meteohub,2013-05-28 21:52:00,
2013-05-28 17:57:00,64.6,62.8,29.39,SSW,198,0.0,1.0,94,0.00,,,0.27,meteohub,2013-05-28 21:57:00,
2013-05-28 18:02:00,64.6,62.8,29.39,SSW,198,0.0,1.0,94,0.00,,,0.27,meteohub,2013-05-28 22:02:00,
2013-05-28 18:07:00,64.6,62.8,29.39,SSW,198,0.0,1.0,94,0.00,,,0.27,meteohub,2013-05-28 22:07:00,
2013-05-28 18:12:00,64.4,62.6,29.39,SSW,198,0.0,0.0,94,0.00,,,0.27,meteohub,2013-05-28 22:12:00,
2013-05-28 18:17:00,64.4,62.6,29.39,SSW,198,0.0,0.0,94,0.00,,,0.27,meteohub,2013-05-28 22:17:00,
2013-05-28 18:22:00,64.4,62.6,29.39,SSW,198,0.0,0.0,94,0.00,,,0.27,meteohub,2013-05-28 22:22:00,
2013-05-28 18:27:00,64.2,62.4,29.39,SSW,198,0.0,0.0,94,0.00,,,0.27,meteohub,2013-05-28 22:27:00,
2013-05-28 18:32:00,64.2,62.4,29.39,SSW,198,0.0,0.0,94,0.00,,,0.27,meteohub,2013-05-28 22:32:00,
2013-05-28 18:37:00,64.2,62.4,29.39,SSW,198,0.0,0.0,94,0.00,,,0.27,meteohub,2013-05-28 22:37:00,
2013-05-28 18:42:00,64.2,62.4,29.39,SSW,198,0.0,0.0,94,0.00,,,0.27,meteohub,2013-05-28 22:42:00,
2013-05-28 18:47:00,64.2,62.4,29.39,SSW,198,0.0,0.0,94,0.00,,,0.27,meteohub,2013-05-28 22:47:00,
2013-05-28 18:52:00,64.2,62.8,29.39,SSW,198,0.0,0.0,95,0.00,,,0.27,meteohub,2013-05-28 22:52:00,
2013-05-28 18:57:00,64.2,62.8,29.38,SSW,198,0.0,0.0,95,0.00,,,0.27,meteohub,2013-05-28 22:57:00,
2013-05-28 19:02:00,64.2,62.8,29.39,SSW,198,0.0,0.0,95,0.00,,,0.27,meteohub,2013-05-28 23:02:00,
2013-05-28 19:07:00,64.2,62.8,29.39,SSW,198,0.0,0.0,95,0.00,,,0.27,meteohub,2013-05-28 23:07:00,
2013-05-28 19:12:00,64.2,62.8,29.38,SSW,198,0.0,0.0,95,0.00,,,0.27,meteohub,2013-05-28 23:12:00,
2013-05-28 19:17:00,64.2,62.8,29.38,SSW,198,0.0,0.0,95,0.00,,,0.27,meteohub,2013-05-28 23:17:00,
2013-05-28 19:22:00,64.2,62.8,29.38,SSW,198,0.0,0.0,95,0.00,,,0.27,meteohub,2013-05-28 23:22:00,
2013-05-28 19:27:00,64.2,62.8,29.38,SSW,198,0.0,0.0,95,0.00,,,0.27,meteohub,2013-05-28 23:27:00,
2013-05-28 19:32:00,64.2,62.8,29.38,SSW,198,0.0,0.0,95,0.00,,,0.27,meteohub,2013-05-28 23:32:00,
2013-05-28 19:37:00,64.2,62.8,29.38,SSW,198,0.0,0.0,95,0.00,,,0.27,meteohub,2013-05-28 23:37:00,
2013-05-28 19:42:00,64.2,62.8,29.38,SSW,198,0.0,0.0,95,0.00,,,0.27,meteohub,2013-05-28 23:42:00,
2013-05-28 19:47:00,64.2,62.8,29.38,SSW,198,0.0,0.0,95,0.00,,,0.27,meteohub,2013-05-28 23:47:00,
2013-05-28 19:52:00,64.0,62.6,29.38,SSW,198,0.0,1.0,95,0.00,,,0.27,meteohub,2013-05-28 23:52:00,
2013-05-28 19:57:00,64.0,62.2,29.38,SSW,198,0.0,1.0,94,0.00,,,0.27,meteohub,2013-05-28 23:57:00,
2013-05-28 20:02:00,64.0,62.2,29.38,SSW,198,0.0,1.0,94,0.00,,,0.27,meteohub,2013-05-29 00:02:00,
2013-05-28 20:07:00,63.9,62.1,29.38,SSW,198,0.0,2.0,94,0.00,,,0.27,meteohub,2013-05-29 00:07:00,
2013-05-28 20:12:00,63.9,62.1,29.38,SSW,198,0.0,2.0,94,0.00,,,0.27,meteohub,2013-05-29 00:12:00,
2013-05-28 20:17:00,63.9,62.1,29.38,SSW,198,0.0,2.0,94,0.00,,,0.27,meteohub,2013-05-29 00:17:00,
2013-05-28 20:22:00,63.7,61.9,29.37,SSW,198,0.0,0.0,94,0.00,,,0.27,meteohub,2013-05-29 00:22:00,
2013-05-28 20:27:00,63.7,62.2,29.37,SSW,198,0.0,0.0,95,0.00,,,0.27,meteohub,2013-05-29 00:27:00,
2013-05-28 20:32:00,63.5,62.1,29.37,SSW,198,0.0,0.0,95,0.00,,,0.27,meteohub,2013-05-29 00:32:00,
2013-05-28 20:37:00,63.5,62.1,29.37,SSW,198,0.0,0.0,95,0.00,,,0.27,meteohub,2013-05-29 00:37:00,
2013-05-28 20:42:00,63.3,61.9,29.37,SSW,198,0.0,1.0,95,0.00,,,0.27,meteohub,2013-05-29 00:42:00,
2013-05-28 20:47:00,63.3,61.9,29.37,SSW,198,0.0,1.0,95,0.00,,,0.27,meteohub,2013-05-29 00:47:00,
2013-05-28 20:52:00,63.3,61.9,29.37,SSW,198,0.0,1.0,95,0.00,,,0.27,meteohub,2013-05-29 00:52:00,
2013-05-28 20:57:00,63.1,61.7,29.37,SSW,198,0.0,1.0,95,0.00,,,0.27,meteohub,2013-05-29 00:57:00,
2013-05-28 21:02:00,63.1,61.7,29.37,SSW,198,0.0,1.0,95,0.00,,,0.27,meteohub,2013-05-29 01:02:00,
2013-05-28 21:07:00,63.1,61.7,29.37,SSW,198,0.0,1.0,95,0.00,,,0.27,meteohub,2013-05-29 01:07:00,
2013-05-28 21:12:00,63.1,61.7,29.37,NNW,336,0.0,1.0,95,0.00,,,0.27,meteohub,2013-05-29 01:12:00,
2013-05-28 21:17:00,63.1,61.7,29.37,NW,314,2.0,4.0,95,0.00,,,0.27,meteohub,2013-05-29 01:17:00,
2013-05-28 21:22:00,63.0,61.5,29.37,NW,314,0.0,4.0,95,0.00,,,0.27,meteohub,2013-05-29 01:22:00,
2013-05-28 21:27:00,63.0,61.5,29.36,NW,314,0.0,4.0,95,0.00,,,0.27,meteohub,2013-05-29 01:27:00,
2013-05-28 21:32:00,63.0,61.5,29.37,NW,314,1.0,2.0,95,0.00,,,0.27,meteohub,2013-05-29 01:32:00,
2013-05-28 21:37:00,63.0,61.5,29.37,NW,314,0.0,2.0,95,0.00,,,0.27,meteohub,2013-05-29 01:37:00,
2013-05-28 21:42:00,63.0,61.5,29.38,NW,314,1.0,3.0,95,0.00,,,0.27,meteohub,2013-05-29 01:42:00,
2013-05-28 21:47:00,63.0,61.5,29.37,NW,314,0.0,3.0,95,0.00,,,0.27,meteohub,2013-05-29 01:47:00,
2013-05-28 21:52:00,63.0,61.5,29.37,NW,314,0.0,3.0,95,0.00,,,0.27,meteohub,2013-05-29 01:52:00,
2013-05-28 21:57:00,63.0,61.5,29.37,NW,314,0.0,2.0,95,0.00,,,0.27,meteohub,2013-05-29 01:57:00,
2013-05-28 22:02:00,62.8,61.3,29.37,NW,314,0.0,2.0,95,0.00,,,0.27,meteohub,2013-05-29 02:02:00,
2013-05-28 22:07:00,62.8,61.3,29.38,NW,317,3.0,4.0,95,0.00,,,0.27,meteohub,2013-05-29 02:07:00,
2013-05-28 22:12:00,62.8,61.3,29.38,NW,317,0.0,4.0,95,0.00,,,0.27,meteohub,2013-05-29 02:12:00,
2013-05-28 22:17:00,62.8,61.3,29.38,NW,317,0.0,4.0,95,0.00,,,0.27,meteohub,2013-05-29 02:17:00,
2013-05-28 22:22:00,62.8,61.3,29.37,NW,317,0.0,3.0,95,0.00,,,0.27,meteohub,2013-05-29 02:22:00,
2013-05-28 22:27:00,62.8,61.7,29.38,NW,317,0.0,1.0,96,0.00,,,0.27,meteohub,2013-05-29 02:27:00,
2013-05-28 22:32:00,62.8,61.7,29.38,NW,317,0.0,1.0,96,0.00,,,0.27,meteohub,2013-05-29 02:32:00,
2013-05-28 22:37:00,62.8,61.7,29.38,NW,317,0.0,1.0,96,0.00,,,0.27,meteohub,2013-05-29 02:37:00,
2013-05-28 22:42:00,62.8,61.7,29.38,SSE,167,1.0,1.0,96,0.00,,,0.27,meteohub,2013-05-29 02:42:00,
2013-05-28 22:47:00,62.8,61.7,29.37,SSE,167,0.0,3.0,96,0.00,,,0.27,meteohub,2013-05-29 02:47:00,
2013-05-28 22:52:00,62.8,61.7,29.37,SSE,167,0.0,3.0,96,0.00,,,0.27,meteohub,2013-05-29 02:52:00,
2013-05-28 22:57:00,62.8,61.7,29.37,SSE,167,0.0,3.0,96,0.00,,,0.27,meteohub,2013-05-29 02:57:00,
2013-05-28 23:02:00,63.0,61.9,29.38,SSE,167,0.0,2.0,96,0.00,,,0.27,meteohub,2013-05-29 03:02:00,
2013-05-28 23:07:00,63.0,61.9,29.38,SSE,167,1.0,2.0,96,0.00,,,0.27,meteohub,2013-05-29 03:07:00,
2013-05-28 23:12:00,63.0,61.9,29.38,SSE,167,0.0,2.0,96,0.00,,,0.27,meteohub,2013-05-29 03:12:00,
2013-05-28 23:17:00,63.0,61.9,29.37,SSE,167,0.0,2.0,96,0.00,,,0.27,meteohub,2013-05-29 03:17:00,
2013-05-28 23:22:00,63.0,61.9,29.37,SSE,167,0.0,2.0,96,0.00,,,0.27,meteohub,2013-05-29 03:22:00,
2013-05-28 23:27:00,63.0,61.9,29.37,SSE,167,0.0,2.0,96,0.00,,,0.27,meteohub,2013-05-29 03:27:00,
2013-05-28 23:32:00,63.0,61.9,29.37,SSE,167,1.0,2.0,96,0.00,,,0.27,meteohub,2013-05-29 03:32:00,
2013-05-28 23:37:00,63.0,61.9,29.38,SSE,167,0.0,2.0,96,0.00,,,0.27,meteohub,2013-05-29 03:37:00,
2013-05-28 23:41:00,63.0,61.9,29.37,SSE,167,0.0,2.0,96,0.00,,,0.27,meteohub,2013-05-29 03:41:00,
2013-05-28 23:47:00,63.0,61.9,29.37,WNW,301,0.0,2.0,96,0.00,,,0.27,meteohub,2013-05-29 03:47:00,
2013-05-28 23:52:00,63.0,61.9,29.37,WNW,301,0.0,4.0,96,0.00,,,0.27,meteohub,2013-05-29 03:52:00,
2013-05-28 23:57:00,63.0,61.9,29.37,WNW,301,0.0,4.0,96,0.00,,,0.27,meteohub,2013-05-29 03:57:00,